| time (UTC) | temp F | wind direction | speed MPH | gust MPH | rain 1hr in | rain 24hr in | rain mn in | humidity % | barometer mb |
| 20260502161627 | 51 | 0 | 0.0 | 3.0 | 0.00 | 0.00 | 0.00 | 61 | 1020.9 |
| 20260502161040 | 51 | 360 | 1.0 | 3.0 | 0.00 | 0.00 | 0.00 | 61 | 1021.0 |
| 20260502160543 | 51 | 360 | 1.0 | 3.0 | 0.00 | 0.00 | 0.00 | 60 | 1021.0 |
| 20260502152042 | 53 | 360 | 0.0 | 2.0 | 0.00 | 0.00 | 0.00 | 56 | 1021.1 |
| 20260502151601 | 53 | 0 | 1.0 | 3.0 | 0.00 | 0.00 | 0.00 | 55 | 1021.0 |
| 20260502151044 | 53 | 360 | 1.0 | 3.0 | 0.00 | 0.00 | 0.00 | 55 | 1021.1 |
| 20260502150543 | 53 | 360 | 1.0 | 3.0 | 0.00 | 0.00 | 0.00 | 55 | 1021.0 |
| 20260502130546 | 55 | 360 | 1.0 | 2.0 | 0.00 | 0.00 | 0.00 | 51 | 1021.0 |
| 20260502123542 | 56 | 0 | 0.0 | 0.0 | 0.00 | 0.00 | 0.00 | 49 | 1020.9 |
| 20260502123047 | 56 | 0 | 0.0 | 2.0 | 0.00 | 0.00 | 0.00 | 49 | 1020.9 |
| 20260502122543 | 56 | 0 | 0.0 | 3.0 | 0.00 | 0.00 | 0.00 | 49 | 1021.0 |
| 20260502122042 | 56 | 360 | 1.0 | 3.0 | 0.00 | 0.00 | 0.00 | 48 | 1021.0 |
| 20260502121551 | 56 | 360 | 1.0 | 3.0 | 0.00 | 0.00 | 0.00 | 48 | 1021.0 |
| 20260502121042 | 56 | 360 | 1.0 | 2.0 | 0.00 | 0.00 | 0.00 | 48 | 1021.0 |
| 20260502120544 | 56 | 360 | 1.0 | 3.0 | 0.00 | 0.00 | 0.00 | 48 | 1020.8 |
| 20260502115542 | 56 | 360 | 0.0 | 2.0 | 0.00 | 0.00 | 0.00 | 47 | 1020.8 |
| 20260502115041 | 56 | 0 | 0.0 | 0.0 | 0.00 | 0.00 | 0.00 | 47 | 1020.8 |
| 20260502114556 | 57 | 0 | 0.0 | 2.0 | 0.00 | 0.00 | 0.00 | 47 | 1020.7 |
| 20260502114043 | 57 | 0 | 0.0 | 2.0 | 0.00 | 0.00 | 0.00 | 47 | 1020.6 |
| 20260502113543 | 57 | 0 | 0.0 | 2.0 | 0.00 | 0.00 | 0.00 | 46 | 1020.6 |
| 20260502113052 | 57 | 360 | 1.0 | 2.0 | 0.00 | 0.00 | 0.00 | 46 | 1020.5 |
| 20260502112540 | 57 | 360 | 0.0 | 2.0 | 0.00 | 0.00 | 0.00 | 46 | 1020.5 |
| 20260502112041 | 57 | 360 | 1.0 | 2.0 | 0.00 | 0.00 | 0.00 | 45 | 1020.4 |
| 20260502111548 | 58 | 360 | 0.0 | 2.0 | 0.00 | 0.00 | 0.00 | 45 | 1020.5 |
| 20260502111043 | 58 | 0 | 1.0 | 2.0 | 0.00 | 0.00 | 0.00 | 45 | 1020.4 |
| 20260502110542 | 58 | 360 | 1.0 | 2.0 | 0.00 | 0.00 | 0.00 | 45 | 1020.3 |
| 20260502110057 | 58 | 360 | 1.0 | 2.0 | 0.00 | 0.00 | 0.00 | 44 | 1020.3 |
| 20260502105541 | 58 | 360 | 1.0 | 2.0 | 0.00 | 0.00 | 0.00 | 44 | 1020.4 |
| 20260502105041 | 59 | 360 | 0.0 | 2.0 | 0.00 | 0.00 | 0.00 | 44 | 1020.4 |
| 20260502104555 | 59 | 360 | 1.0 | 2.0 | 0.00 | 0.00 | 0.00 | 44 | 1020.3 |
| 20260502104040 | 59 | 360 | 0.0 | 2.0 | 0.00 | 0.00 | 0.00 | 43 | 1020.2 |
| 20260502103543 | 59 | 360 | 1.0 | 3.0 | 0.00 | 0.00 | 0.00 | 43 | 1020.1 |
| 20260502103047 | 60 | 360 | 0.0 | 3.0 | 0.00 | 0.00 | 0.00 | 43 | 1020.0 |
| 20260502102543 | 60 | 360 | 1.0 | 3.0 | 0.00 | 0.00 | 0.00 | 42 | 1020.0 |
| 20260502102043 | 60 | 360 | 1.0 | 3.0 | 0.00 | 0.00 | 0.00 | 42 | 1020.0 |
| 20260502101550 | 60 | 360 | 1.0 | 3.0 | 0.00 | 0.00 | 0.00 | 42 | 1019.9 |
| 20260502101043 | 61 | 360 | 1.0 | 3.0 | 0.00 | 0.00 | 0.00 | 41 | 1019.9 |
| 20260502100543 | 61 | 360 | 1.0 | 4.0 | 0.00 | 0.00 | 0.00 | 41 | 1019.9 |
| 20260502091039 | 63 | 360 | 3.0 | 6.0 | 0.00 | 0.00 | 0.00 | 36 | 1019.2 |
| 20260502090544 | 64 | 360 | 2.0 | 6.0 | 0.00 | 0.00 | 0.00 | 37 | 1019.2 |
| 20260502080105 | 66 | 360 | 4.0 | 11.0 | 0.00 | 0.00 | 0.00 | 35 | 1018.8 |
| 20260502071040 | 67 | 360 | 3.0 | 10.0 | 0.00 | 0.00 | 0.00 | 33 | 1018.4 |
| 20260502070543 | 67 | 360 | 4.0 | 10.0 | 0.00 | 0.00 | 0.00 | 33 | 1018.4 |
| 20260502070056 | 67 | 360 | 4.0 | 14.0 | 0.00 | 0.00 | 0.00 | 33 | 1018.3 |
| 20260502065540 | 67 | 360 | 3.0 | 14.0 | 0.00 | 0.00 | 0.00 | 34 | 1018.3 |
| 20260502065043 | 67 | 360 | 6.0 | 14.0 | 0.00 | 0.00 | 0.00 | 34 | 1018.3 |
| 20260502064651 | 67 | 360 | 3.0 | 11.0 | 0.00 | 0.00 | 0.00 | 34 | 1018.2 |
| 20260502064040 | 67 | 360 | 6.0 | 12.0 | 0.00 | 0.00 | 0.00 | 34 | 1018.2 |
| 20260502063539 | 68 | 360 | 6.0 | 12.0 | 0.00 | 0.00 | 0.00 | 35 | 1018.1 |
| 20260502063048 | 67 | 360 | 6.0 | 11.0 | 0.00 | 0.00 | 0.00 | 35 | 1018.2 |
| 20260502062540 | 66 | 360 | 5.0 | 11.0 | 0.00 | 0.00 | 0.00 | 36 | 1018.2 |
| 20260502062040 | 67 | 360 | 4.0 | 11.0 | 0.00 | 0.00 | 0.00 | 34 | 1018.2 |
| 20260502061550 | 68 | 360 | 4.0 | 11.0 | 0.00 | 0.00 | 0.00 | 34 | 1018.2 |
| 20260502061040 | 68 | 360 | 4.0 | 11.0 | 0.00 | 0.00 | 0.00 | 34 | 1018.2 |
| 20260502060540 | 67 | 360 | 5.0 | 10.0 | 0.00 | 0.00 | 0.00 | 35 | 1018.2 |
| 20260502060051 | 67 | 360 | 3.0 | 10.0 | 0.00 | 0.00 | 0.00 | 36 | 1018.3 |
| 20260502055540 | 67 | 360 | 6.0 | 10.0 | 0.00 | 0.00 | 0.00 | 35 | 1018.3 |
| 20260502055040 | 69 | 360 | 5.0 | 12.0 | 0.00 | 0.00 | 0.00 | 33 | 1018.3 |
| 20260502054557 | 68 | 360 | 4.0 | 12.0 | 0.00 | 0.00 | 0.00 | 33 | 1018.2 |
| 20260502054040 | 69 | 360 | 4.0 | 11.0 | 0.00 | 0.00 | 0.00 | 34 | 1018.2 |
| 20260502053539 | 68 | 360 | 5.0 | 11.0 | 0.00 | 0.00 | 0.00 | 34 | 1018.1 |
| 20260502053054 | 68 | 360 | 6.0 | 11.0 | 0.00 | 0.00 | 0.00 | 34 | 1018.3 |
| 20260502052540 | 68 | 360 | 5.0 | 10.0 | 0.00 | 0.00 | 0.00 | 32 | 1018.2 |
| 20260502052044 | 68 | 360 | 5.0 | 11.0 | 0.00 | 0.00 | 0.00 | 35 | 1018.2 |
| 20260502051627 | 68 | 360 | 4.0 | 12.0 | 0.00 | 0.00 | 0.00 | 35 | 1018.2 |
| 20260502051040 | 69 | 360 | 4.0 | 12.0 | 0.00 | 0.00 | 0.00 | 35 | 1018.2 |
| 20260502050543 | 68 | 360 | 4.0 | 10.0 | 0.00 | 0.00 | 0.00 | 34 | 1018.1 |
| 20260502050056 | 68 | 360 | 5.0 | 13.0 | 0.00 | 0.00 | 0.00 | 35 | 1018.2 |
| 20260502045540 | 67 | 360 | 4.0 | 13.0 | 0.00 | 0.00 | 0.00 | 35 | 1018.2 |
| 20260502045042 | 67 | 360 | 5.0 | 12.0 | 0.00 | 0.00 | 0.00 | 35 | 1018.2 |
| 20260502044549 | 66 | 360 | 6.0 | 12.0 | 0.00 | 0.00 | 0.00 | 36 | 1018.3 |
| 20260502044042 | 67 | 360 | 7.0 | 11.0 | 0.00 | 0.00 | 0.00 | 36 | 1018.3 |
| 20260502043542 | 67 | 360 | 4.0 | 10.0 | 0.00 | 0.00 | 0.00 | 40 | 1018.4 |
| 20260502043052 | 66 | 360 | 3.0 | 12.0 | 0.00 | 0.00 | 0.00 | 41 | 1018.5 |
| 20260502042543 | 66 | 360 | 5.0 | 12.0 | 0.00 | 0.00 | 0.00 | 40 | 1018.6 |
| 20260502042041 | 66 | 360 | 5.0 | 12.0 | 0.00 | 0.00 | 0.00 | 40 | 1018.7 |
| 20260502041551 | 66 | 360 | 5.0 | 14.0 | 0.00 | 0.00 | 0.00 | 41 | 1018.8 |
| 20260502041042 | 66 | 360 | 5.0 | 14.0 | 0.00 | 0.00 | 0.00 | 41 | 1019.0 |
| 20260502040543 | 66 | 360 | 6.0 | 14.0 | 0.00 | 0.00 | 0.00 | 40 | 1018.9 |
| 20260502040105 | 66 | 360 | 5.0 | 14.0 | 0.00 | 0.00 | 0.00 | 42 | 1019.0 |
| 20260502035541 | 65 | 360 | 6.0 | 14.0 | 0.00 | 0.00 | 0.00 | 42 | 1019.1 |
| 20260502035044 | 65 | 360 | 5.0 | 12.0 | 0.00 | 0.00 | 0.00 | 42 | 1019.2 |
| 20260502034554 | 65 | 360 | 6.0 | 16.0 | 0.00 | 0.00 | 0.00 | 43 | 1019.2 |
| 20260502034044 | 64 | 360 | 5.0 | 16.0 | 0.00 | 0.00 | 0.00 | 43 | 1019.2 |
| 20260502033542 | 64 | 360 | 5.0 | 10.0 | 0.00 | 0.00 | 0.00 | 45 | 1019.3 |
| 20260502033050 | 64 | 360 | 4.0 | 12.0 | 0.00 | 0.00 | 0.00 | 46 | 1019.3 |
| 20260502032542 | 63 | 360 | 5.0 | 12.0 | 0.00 | 0.00 | 0.00 | 46 | 1019.5 |
| 20260502032043 | 63 | 360 | 5.0 | 12.0 | 0.00 | 0.00 | 0.00 | 46 | 1019.6 |
| 20260502031552 | 63 | 360 | 4.0 | 13.0 | 0.00 | 0.00 | 0.00 | 47 | 1019.7 |
| 20260502031041 | 63 | 360 | 5.0 | 13.0 | 0.00 | 0.00 | 0.00 | 46 | 1019.8 |
| 20260502030541 | 63 | 360 | 5.0 | 13.0 | 0.00 | 0.00 | 0.00 | 46 | 1019.9 |
| 20260502030052 | 63 | 360 | 6.0 | 13.0 | 0.00 | 0.00 | 0.00 | 45 | 1019.8 |
| 20260502025540 | 63 | 360 | 4.0 | 11.0 | 0.00 | 0.00 | 0.00 | 47 | 1020.0 |
| 20260502025041 | 62 | 360 | 5.0 | 11.0 | 0.00 | 0.00 | 0.00 | 47 | 1020.0 |
| 20260502024551 | 62 | 360 | 6.0 | 14.0 | 0.00 | 0.00 | 0.00 | 47 | 1020.1 |
| 20260502024043 | 62 | 360 | 7.0 | 14.0 | 0.00 | 0.00 | 0.00 | 48 | 1020.1 |
| 20260502023543 | 62 | 360 | 6.0 | 15.0 | 0.00 | 0.00 | 0.00 | 47 | 1020.1 |
| 20260502023057 | 62 | 360 | 4.0 | 15.0 | 0.00 | 0.00 | 0.00 | 48 | 1020.1 |
| 20260502022541 | 61 | 360 | 7.0 | 15.0 | 0.00 | 0.00 | 0.00 | 49 | 1020.1 |
| 20260502022040 | 61 | 360 | 4.0 | 10.0 | 0.00 | 0.00 | 0.00 | 50 | 1020.1 |
| 20260502021552 | 61 | 360 | 4.0 | 10.0 | 0.00 | 0.00 | 0.00 | 51 | 1020.2 |
| 20260502021041 | 60 | 360 | 4.0 | 11.0 | 0.00 | 0.00 | 0.00 | 50 | 1020.2 |
| 20260502020541 | 60 | 360 | 4.0 | 11.0 | 0.00 | 0.00 | 0.00 | 50 | 1020.2 |
| 20260502020113 | 60 | 360 | 4.0 | 11.0 | 0.00 | 0.00 | 0.00 | 50 | 1020.2 |
| 20260502015543 | 60 | 360 | 5.0 | 11.0 | 0.00 | 0.00 | 0.00 | 51 | 1020.2 |
| 20260502015045 | 60 | 360 | 5.0 | 12.0 | 0.00 | 0.00 | 0.00 | 51 | 1020.1 |
| 20260502014555 | 59 | 360 | 8.0 | 12.0 | 0.00 | 0.00 | 0.00 | 51 | 1020.3 |
| 20260502014044 | 59 | 360 | 4.0 | 13.0 | 0.00 | 0.00 | 0.00 | 52 | 1020.2 |
| 20260502013543 | 59 | 360 | 5.0 | 13.0 | 0.00 | 0.00 | 0.00 | 53 | 1020.3 |
| 20260502013106 | 59 | 360 | 6.0 | 13.0 | 0.00 | 0.00 | 0.00 | 53 | 1020.4 |
| 20260502012542 | 59 | 360 | 5.0 | 13.0 | 0.00 | 0.00 | 0.00 | 53 | 1020.5 |
| 20260502012043 | 58 | 360 | 5.0 | 13.0 | 0.00 | 0.00 | 0.00 | 54 | 1020.5 |
| 20260502011615 | 58 | 360 | 4.0 | 12.0 | 0.00 | 0.00 | 0.00 | 55 | 1020.5 |
| 20260502011042 | 57 | 360 | 5.0 | 12.0 | 0.00 | 0.00 | 0.00 | 56 | 1020.4 |
| 20260502010539 | 57 | 360 | 6.0 | 11.0 | 0.00 | 0.00 | 0.00 | 56 | 1020.4 |
| 20260502010050 | 56 | 360 | 6.0 | 13.0 | 0.00 | 0.00 | 0.00 | 57 | 1020.3 |
| 20260502005540 | 56 | 360 | 6.0 | 13.0 | 0.00 | 0.00 | 0.00 | 57 | 1020.5 |
| 20260502005042 | 56 | 360 | 5.0 | 11.0 | 0.00 | 0.00 | 0.00 | 58 | 1020.5 |
| 20260502004554 | 56 | 360 | 5.0 | 14.0 | 0.00 | 0.00 | 0.00 | 58 | 1020.4 |
| 20260502004043 | 55 | 360 | 5.0 | 14.0 | 0.00 | 0.00 | 0.00 | 59 | 1020.4 |
| 20260502003543 | 55 | 360 | 5.0 | 14.0 | 0.00 | 0.00 | 0.00 | 59 | 1020.5 |
| 20260502003052 | 55 | 360 | 7.0 | 14.0 | 0.00 | 0.00 | 0.00 | 60 | 1020.6 |
| 20260502002540 | 54 | 360 | 7.0 | 14.0 | 0.00 | 0.00 | 0.00 | 60 | 1020.5 |
| 20260502002044 | 54 | 360 | 7.0 | 16.0 | 0.00 | 0.00 | 0.00 | 60 | 1020.4 |
| 20260502001625 | 54 | 360 | 7.0 | 16.0 | 0.00 | 0.00 | 0.00 | 60 | 1020.4 |
| 20260502001043 | 54 | 360 | 8.0 | 16.0 | 0.00 | 0.00 | 0.00 | 61 | 1020.3 |
| 20260502000542 | 53 | 360 | 7.0 | 14.0 | 0.00 | 0.00 | 0.00 | 62 | 1020.2 |
| 20260502000050 | 53 | 360 | 7.0 | 15.0 | 0.00 | 0.00 | 0.00 | 62 | 1020.2 |
| 20260501235542 | 52 | 360 | 10.0 | 15.0 | 0.00 | 0.00 | 0.00 | 63 | 1020.2 |
| 20260501235044 | 52 | 360 | 7.0 | 15.0 | 0.00 | 0.00 | 0.00 | 63 | 1020.1 |
| 20260501234548 | 52 | 360 | 8.0 | 15.0 | 0.00 | 0.00 | 0.00 | 63 | 1019.9 |
| 20260501234040 | 51 | 360 | 9.0 | 15.0 | 0.00 | 0.00 | 0.00 | 64 | 1019.9 |
| 20260501233547 | 51 | 360 | 10.0 | 15.0 | 0.00 | 0.00 | 0.00 | 64 | 1019.8 |
| 20260501233047 | 51 | 360 | 6.0 | 14.0 | 0.00 | 0.00 | 0.00 | 64 | 1019.8 |
| 20260501232543 | 51 | 360 | 8.0 | 14.0 | 0.00 | 0.00 | 0.00 | 64 | 1019.9 |
| 20260501232039 | 50 | 360 | 8.0 | 13.0 | 0.00 | 0.00 | 0.00 | 65 | 1019.8 |
| 20260501231548 | 50 | 360 | 6.0 | 13.0 | 0.00 | 0.00 | 0.00 | 65 | 1019.7 |
| 20260501231040 | 50 | 360 | 8.0 | 12.0 | 0.00 | 0.00 | 0.00 | 66 | 1019.7 |
| 20260501230542 | 49 | 360 | 7.0 | 11.0 | 0.00 | 0.00 | 0.00 | 67 | 1019.7 |
| 20260501230052 | 49 | 360 | 6.0 | 11.0 | 0.00 | 0.00 | 0.00 | 67 | 1019.8 |
| 20260501225540 | 49 | 360 | 6.0 | 11.0 | 0.00 | 0.00 | 0.00 | 68 | 1019.7 |
| 20260501225044 | 48 | 360 | 5.0 | 11.0 | 0.00 | 0.00 | 0.00 | 69 | 1019.7 |
| 20260501224557 | 48 | 360 | 6.0 | 11.0 | 0.00 | 0.00 | 0.00 | 69 | 1019.6 |
| 20260501224042 | 47 | 360 | 5.0 | 9.0 | 0.00 | 0.00 | 0.00 | 70 | 1019.5 |
| 20260501223544 | 47 | 360 | 5.0 | 9.0 | 0.00 | 0.00 | 0.00 | 70 | 1019.6 |
| 20260501223050 | 47 | 360 | 5.0 | 9.0 | 0.00 | 0.00 | 0.00 | 70 | 1019.5 |
| 20260501222543 | 47 | 360 | 5.0 | 8.0 | 0.00 | 0.00 | 0.00 | 71 | 1019.3 |
| 20260501222040 | 46 | 360 | 4.0 | 6.0 | 0.00 | 0.00 | 0.00 | 71 | 1019.3 |
| 20260501221555 | 46 | 360 | 4.0 | 6.0 | 0.00 | 0.00 | 0.00 | 70 | 1019.1 |
| 20260501221042 | 46 | 360 | 4.0 | 6.0 | 0.00 | 0.00 | 0.00 | 70 | 1019.1 |
| 20260501220542 | 46 | 360 | 3.0 | 6.0 | 0.00 | 0.00 | 0.00 | 69 | 1019.1 |
| 20260501220051 | 46 | 360 | 3.0 | 6.0 | 0.00 | 0.00 | 0.00 | 69 | 1018.8 |
| 20260501215543 | 46 | 360 | 3.0 | 6.0 | 0.00 | 0.00 | 0.00 | 69 | 1018.9 |
| 20260501215043 | 47 | 360 | 3.0 | 6.0 | 0.00 | 0.00 | 0.00 | 68 | 1018.9 |
| 20260501214554 | 47 | 360 | 3.0 | 6.0 | 0.00 | 0.00 | 0.00 | 68 | 1018.8 |
| 20260501214043 | 47 | 360 | 3.0 | 8.0 | 0.00 | 0.00 | 0.00 | 68 | 1018.8 |
| 20260501213539 | 47 | 360 | 4.0 | 8.0 | 0.00 | 0.00 | 0.00 | 67 | 1018.8 |
| 20260501213057 | 47 | 360 | 4.0 | 8.0 | 0.00 | 0.00 | 0.00 | 67 | 1018.6 |
| 20260501212540 | 47 | 360 | 4.0 | 8.0 | 0.00 | 0.00 | 0.00 | 67 | 1018.6 |
| 20260501212039 | 47 | 360 | 3.0 | 8.0 | 0.00 | 0.00 | 0.00 | 66 | 1018.5 |
| 20260501211551 | 47 | 360 | 3.0 | 8.0 | 0.00 | 0.00 | 0.00 | 66 | 1018.6 |
| 20260501211042 | 48 | 360 | 4.0 | 8.0 | 0.00 | 0.00 | 0.00 | 65 | 1018.5 |
| 20260501210540 | 48 | 360 | 4.0 | 8.0 | 0.00 | 0.00 | 0.00 | 65 | 1018.6 |
| 20260501210057 | 48 | 360 | 3.0 | 8.0 | 0.00 | 0.00 | 0.00 | 64 | 1018.6 |
| 20260501205545 | 49 | 360 | 4.0 | 9.0 | 0.00 | 0.00 | 0.00 | 64 | 1018.5 |
| 20260501205040 | 49 | 360 | 4.0 | 9.0 | 0.00 | 0.00 | 0.00 | 63 | 1018.5 |
| 20260501204550 | 49 | 360 | 5.0 | 9.0 | 0.00 | 0.00 | 0.00 | 63 | 1018.3 |
| 20260501204039 | 49 | 360 | 4.0 | 9.0 | 0.00 | 0.00 | 0.00 | 62 | 1018.4 |
| 20260501203539 | 49 | 360 | 4.0 | 9.0 | 0.00 | 0.00 | 0.00 | 62 | 1018.3 |
| 20260501203050 | 49 | 360 | 4.0 | 10.0 | 0.00 | 0.00 | 0.00 | 61 | 1018.3 |
| 20260501202540 | 49 | 360 | 4.0 | 10.0 | 0.00 | 0.00 | 0.00 | 61 | 1018.2 |
| 20260501202043 | 50 | 360 | 5.0 | 10.0 | 0.00 | 0.00 | 0.00 | 61 | 1018.2 |
| 20260501201551 | 49 | 360 | 4.0 | 9.0 | 0.00 | 0.00 | 0.00 | 61 | 1018.2 |
| 20260501201046 | 50 | 360 | 4.0 | 9.0 | 0.00 | 0.00 | 0.00 | 61 | 1018.2 |
| 20260501200540 | 50 | 360 | 3.0 | 8.0 | 0.00 | 0.00 | 0.00 | 61 | 1018.2 |
| 20260501200047 | 50 | 360 | 3.0 | 8.0 | 0.00 | 0.00 | 0.00 | 60 | 1018.2 |
| 20260501195539 | 50 | 360 | 3.0 | 8.0 | 0.00 | 0.00 | 0.00 | 60 | 1018.1 |
| 20260501195040 | 50 | 360 | 3.0 | 8.0 | 0.00 | 0.00 | 0.00 | 60 | 1018.1 |
| 20260501194551 | 50 | 360 | 3.0 | 8.0 | 0.00 | 0.00 | 0.00 | 60 | 1018.0 |
| 20260501194039 | 50 | 360 | 3.0 | 8.0 | 0.00 | 0.00 | 0.00 | 59 | 1018.0 |
| 20260501193543 | 51 | 360 | 3.0 | 6.0 | 0.00 | 0.00 | 0.00 | 59 | 1018.0 |
| 20260501193051 | 51 | 360 | 3.0 | 10.0 | 0.00 | 0.00 | 0.00 | 59 | 1018.0 |
| 20260501192540 | 51 | 360 | 3.0 | 10.0 | 0.00 | 0.00 | 0.00 | 59 | 1018.1 |
| 20260501192041 | 51 | 360 | 3.0 | 10.0 | 0.00 | 0.00 | 0.00 | 58 | 1018.0 |
| 20260501191548 | 51 | 360 | 5.0 | 10.0 | 0.00 | 0.00 | 0.00 | 58 | 1018.1 |
| 20260501191040 | 51 | 360 | 4.0 | 10.0 | 0.00 | 0.00 | 0.00 | 58 | 1018.1 |
| 20260501190543 | 51 | 360 | 4.0 | 11.0 | 0.00 | 0.00 | 0.00 | 58 | 1018.0 |
| 20260501190053 | 51 | 360 | 5.0 | 11.0 | 0.00 | 0.00 | 0.00 | 58 | 1018.0 |
| 20260501185542 | 51 | 360 | 5.0 | 12.0 | 0.00 | 0.00 | 0.00 | 58 | 1018.0 |
| 20260501185046 | 51 | 360 | 5.0 | 12.0 | 0.00 | 0.00 | 0.00 | 58 | 1017.9 |
| 20260501184553 | 51 | 360 | 5.0 | 11.0 | 0.00 | 0.00 | 0.00 | 59 | 1017.8 |
| 20260501184043 | 51 | 360 | 5.0 | 11.0 | 0.00 | 0.00 | 0.00 | 59 | 1017.7 |
| 20260501183543 | 51 | 360 | 4.0 | 13.0 | 0.00 | 0.00 | 0.00 | 59 | 1017.7 |
| 20260501183050 | 51 | 360 | 4.0 | 15.0 | 0.00 | 0.00 | 0.00 | 58 | 1017.7 |
| 20260501182543 | 51 | 360 | 6.0 | 15.0 | 0.00 | 0.00 | 0.00 | 58 | 1017.8 |
| 20260501182040 | 51 | 360 | 5.0 | 12.0 | 0.00 | 0.00 | 0.00 | 58 | 1017.7 |
| 20260501181549 | 52 | 360 | 6.0 | 14.0 | 0.00 | 0.00 | 0.00 | 57 | 1017.8 |
| 20260501181043 | 52 | 360 | 6.0 | 14.0 | 0.00 | 0.00 | 0.00 | 57 | 1017.9 |
| 20260501180540 | 51 | 360 | 5.0 | 12.0 | 0.00 | 0.00 | 0.00 | 57 | 1017.9 |
| 20260501180053 | 51 | 360 | 6.0 | 12.0 | 0.00 | 0.00 | 0.00 | 58 | 1017.9 |
| 20260501175542 | 51 | 360 | 4.0 | 10.0 | 0.00 | 0.00 | 0.00 | 58 | 1017.9 |
| 20260501175042 | 51 | 360 | 5.0 | 10.0 | 0.00 | 0.00 | 0.00 | 59 | 1017.8 |
| 20260501174550 | 51 | 360 | 4.0 | 10.0 | 0.00 | 0.00 | 0.00 | 60 | 1017.8 |
| 20260501174042 | 51 | 360 | 4.0 | 10.0 | 0.00 | 0.00 | 0.00 | 61 | 1017.7 |
| 20260501173540 | 51 | 360 | 4.0 | 10.0 | 0.00 | 0.00 | 0.00 | 61 | 1017.7 |
| 20260501173048 | 51 | 360 | 5.0 | 11.0 | 0.00 | 0.00 | 0.00 | 61 | 1017.8 |
| 20260501172542 | 51 | 360 | 4.0 | 11.0 | 0.00 | 0.00 | 0.00 | 62 | 1017.8 |
| 20260501172042 | 51 | 360 | 3.0 | 9.0 | 0.00 | 0.00 | 0.00 | 62 | 1017.8 |
| 20260501171552 | 51 | 360 | 4.0 | 8.0 | 0.00 | 0.00 | 0.00 | 62 | 1017.7 |
| 20260501171040 | 51 | 360 | 4.0 | 8.0 | 0.00 | 0.00 | 0.00 | 63 | 1017.7 |
| 20260501170540 | 51 | 360 | 4.0 | 9.0 | 0.00 | 0.00 | 0.00 | 63 | 1017.8 |
| 20260501170052 | 51 | 360 | 4.0 | 10.0 | 0.00 | 0.00 | 0.00 | 63 | 1017.8 |
| 20260501165540 | 51 | 360 | 3.0 | 10.0 | 0.00 | 0.00 | 0.00 | 63 | 1017.8 |
| 20260501165040 | 51 | 360 | 4.0 | 10.0 | 0.00 | 0.00 | 0.00 | 63 | 1017.9 |
| 20260501164557 | 51 | 360 | 4.0 | 12.0 | 0.00 | 0.00 | 0.00 | 63 | 1017.9 |
| 20260501164044 | 51 | 360 | 5.0 | 12.0 | 0.00 | 0.00 | 0.00 | 63 | 1018.0 |
| 20260501163543 | 51 | 360 | 4.0 | 12.0 | 0.00 | 0.00 | 0.00 | 62 | 1017.8 |
| 20260501163050 | 52 | 360 | 5.0 | 12.0 | 0.00 | 0.00 | 0.00 | 62 | 1017.8 |
| 20260501162541 | 52 | 360 | 5.0 | 12.0 | 0.00 | 0.00 | 0.00 | 63 | 1017.8 |
| 20260501162043 | 52 | 360 | 4.0 | 11.0 | 0.00 | 0.00 | 0.00 | 63 | 1017.7 |